[[{"header":{"parameterUnit":"m.s-1","parameterCategory":1,"la1":30.2991,"la2":30.254,"lo1":-89.0895,"lo2":-89.0444,"dy":0.0017,"dx":0.0017,"nx":28,"ny":28,"refTime":"2024-05-25T03:00:00:Z","depth":0,"parameterNumber":2,"parameterNumberName":"U-component_of_WINDS"},"data":[0,0,0,0,0,0,0,0,0,0,0,0,0,0,0,0,0,0,0,0,0,0,0,0,0,0,0,0,0,0,0,0,0,0,0,0,0,0,0,0,0,0,0,0,0,0,0,0,0,0,0,0,0,0,0,0,0,0,-0.3818,-0.3818,0,-0.3788,-0.3787,-0.3787,-0.3799,-0.38,-0.3801,-0.3802,-0.3769,-0.3768,-0.3766,0,0,0,0,0,0,0,0,0,0,0,0,0,-0.3887,-0.3885,-0.3818,-0.3818,-0.3817,-0.3788,-0.3787,-0.3787,-0.3799,-0.38,-0.3801,-0.3802,-0.377,-0.3768,-0.3766,0,0,0,0,0,0,0,0,0,0,0,0,0,-0.3856,-0.3885,-0.3818,-0.382,-0.382,-0.3788,-0.3787,-0.3787,-0.3799,-0.38,-0.3801,-0.3802,-0.377,-0.3768,-0.3766,-0.373,0,0,-0.3759,-0.3758,0,0,0,0,0,0,0,0,-0.3858,-0.3854,-0.382,-0.382,-0.382,-0.3798,-0.3799,-0.3767,-0.3799,-0.3807,-0.3802,-0.3803,-0.3778,-0.3775,-0.3767,-0.3728,-0.3727,-0.3759,-0.3757,-0.3756,-0.3755,0,0,0,0,0,0,0,-0.386,-0.3855,-0.3806,-0.382,-0.3819,-0.3822,-0.3819,-0.3793,-0.3787,-0.3806,-0.3807,-0.3803,-0.3778,-0.3769,-0.3766,-0.3726,-0.3759,-0.3757,-0.3755,-0.3754,-0.3657,-0.3656,0,0,0,0,0,0,-0.3862,-0.3857,-0.3807,-0.3805,-0.3842,-0.382,-0.3817,-0.3804,-0.3787,-0.3785,-0.3803,-0.3804,-0.3773,-0.3769,-0.3765,-0.3722,-0.3756,-0.3754,-0.3753,-0.3658,-0.3656,-0.3655,0,0,0,0,0,0,-0.3864,-0.3858,-0.3808,-0.3831,-0.3825,-0.3818,-0.3804,-0.3803,-0.3794,-0.3784,-0.3783,-0.3795,-0.3773,-0.3768,-0.3739,-0.3721,-0.3753,-0.3751,-0.3659,-0.3657,-0.3656,-0.3635,0,0,0,0,0,0,-0.3866,-0.3858,-0.3844,-0.3831,-0.3824,-0.3782,-0.3802,-0.3802,-0.379,-0.3792,-0.3776,-0.3775,-0.3774,-0.3742,-0.3736,-0.3718,-0.3749,-0.3661,-0.3658,-0.3656,-0.3637,-0.3633,-0.3629,0,0,0,0,0,-0.3868,-0.3839,-0.3844,-0.3838,-0.3807,-0.3781,-0.3777,-0.3777,-0.3789,-0.3775,-0.3769,-0.3775,-0.3724,-0.3739,-0.3732,-0.3714,-0.3662,-0.3659,-0.3657,-0.3639,-0.3633,-0.3629,0,0,0,0,0,0,-0.3851,-0.3838,-0.3842,-0.3808,-0.3796,-0.3783,-0.3766,-0.3771,-0.3754,-0.3756,-0.3756,-0.3753,-0.3722,-0.3715,-0.3732,-0.3678,-0.3695,-0.3691,-0.3684,-0.3678,-0.3674,-0.3676,-0.3747,0,0,0,0,0,-0.3843,-0.3824,-0.3813,-0.3784,-0.3778,-0.3773,-0.3762,-0.3763,-0.3749,-0.3744,-0.3735,-0.3722,-0.3703,-0.369,-0.3672,-0.3636,-0.3633,-0.362,-0.3616,-0.3613,-0.3609,-0.359,-0.3584,-0.3646,-0.3646,-0.3646,0,0,-0.3827,-0.3817,-0.3805,-0.3781,-0.3771,-0.3751,-0.3768,-0.3746,-0.3731,-0.374,-0.3712,-0.3705,-0.369,-0.3657,-0.3643,-0.3651,-0.3591,-0.3609,-0.3607,-0.3605,-0.3586,-0.3581,-0.3575,-0.3644,-0.3645,-0.3645,0,0,-0.3786,-0.3777,-0.3753,-0.3743,-0.3728,-0.3725,-0.3719,-0.3706,-0.3702,-0.3674,-0.368,-0.3663,-0.363,-0.3619,-0.3609,-0.3566,-0.3571,-0.356,-0.3538,-0.3519,-0.3514,-0.351,-0.3494,-0.3489,-0.3556,-0.3556,-0.3556,0,-0.3768,-0.3738,-0.3739,-0.3716,-0.3706,-0.3714,-0.3689,-0.3679,-0.3659,-0.3651,-0.3661,-0.362,-0.3611,-0.3575,-0.3565,-0.3557,-0.355,-0.3561,-0.3515,-0.351,-0.3506,-0.3492,-0.3486,-0.3555,-0.3555,-0.3555,-0.3555,0,-0.3716,-0.3695,-0.3677,-0.3658,-0.3645,-0.3621,-0.3618,-0.3605,-0.3608,-0.3603,-0.3574,-0.3564,-0.3544,-0.3535,-0.3537,-0.35,-0.3506,-0.3515,-0.3532,-0.3499,-0.3485,-0.3479,-0.3553,-0.3553,-0.3554,-0.3554,0,0,-0.3663,-0.3646,-0.3639,-0.3631,-0.3616,-0.36,-0.3576,-0.3557,-0.3546,-0.3532,-0.3512,-0.3485,-0.3493,-0.3482,-0.3483,-0.3466,-0.3433,-0.3478,-0.3477,-0.347,-0.3392,-0.3385,-0.3378,-0.3437,-0.3436,-0.3435,-0.3393,0,-0.3622,-0.3581,-0.3582,-0.3544,-0.3525,-0.3533,-0.3513,-0.3501,-0.3497,-0.348,-0.3476,-0.3456,-0.3469,-0.3462,-0.3446,-0.344,-0.3417,-0.3443,-0.3418,-0.3417,-0.3421,-0.3371,-0.3364,-0.3325,-0.3388,-0.3387,-0.3386,0,-0.3568,-0.3553,-0.3514,-0.3502,-0.3494,-0.3476,-0.3459,-0.3442,-0.343,-0.3428,-0.3416,-0.3419,-0.3395,-0.3413,-0.338,-0.3398,-0.3388,-0.3384,-0.3382,-0.3379,-0.34,-0.3367,-0.3312,-0.3306,-0.3378,-0.3378,-0.3379,0,-0.3534,-0.3504,-0.3476,-0.3469,-0.3455,-0.3442,-0.3435,-0.3423,-0.3412,-0.3397,-0.339,-0.3372,-0.3362,-0.3348,-0.3346,-0.336,-0.3313,-0.3331,-0.3311,-0.3311,-0.33,-0.3301,-0.3243,-0.3294,-0.3294,-0.3294,-0.3294,0,-0.3487,-0.3463,-0.3461,-0.3444,-0.3417,-0.3418,-0.3391,-0.3385,-0.3375,-0.3357,-0.3363,-0.3346,-0.3345,-0.3328,-0.3326,-0.3299,-0.3295,-0.3292,-0.3292,-0.3292,-0.3292,-0.3285,-0.3287,-0.3293,-0.3293,-0.3293,-0.3294,0,-0.3444,-0.3442,-0.3412,-0.3401,-0.3398,-0.3379,-0.3369,-0.3353,-0.335,-0.3327,-0.3322,-0.3316,-0.3296,-0.3293,-0.3269,-0.3269,-0.3236,-0.3239,-0.3241,-0.3241,-0.3221,-0.3223,-0.3156,-0.3147,-0.3204,-0.3204,-0.3203,0,-0.3415,-0.3396,-0.3383,-0.3372,-0.3365,-0.3346,-0.3335,-0.3335,-0.3323,-0.3308,-0.3293,-0.3274,-0.3258,-0.3226,-0.3219,-0.3201,-0.3204,-0.3182,-0.3201,-0.3201,-0.3203,-0.3204,-0.3202,-0.3178,-0.3177,-0.3176,-0.3176,0,-0.3362,-0.3362,-0.3346,-0.3329,-0.3316,-0.3302,-0.329,-0.328,-0.3279,-0.3265,-0.3245,-0.3233,-0.3209,-0.3189,-0.3172,-0.3165,-0.317,-0.317,-0.3164,-0.3163,-0.3165,-0.3164,-0.323,-0.3172,-0.3172,-0.3172,-0.3173,-0.3173,-0.3325,-0.3309,-0.3298,-0.328,-0.3271,-0.3259,-0.3243,-0.3238,-0.3222,-0.3202,-0.3204,-0.3181,-0.3169,-0.3146,-0.3138,-0.312,-0.3127,-0.3119,-0.3117,-0.3115,-0.3113,-0.3168,-0.3117,-0.3117,-0.3117,-0.3117,-0.3117,0,-0.3273,-0.3267,-0.325,-0.3233,-0.3218,-0.3225,-0.3212,-0.3199,-0.318,-0.3168,-0.3153,-0.313,-0.3111,-0.3104,-0.3085,-0.3073,-0.3075,-0.3068,-0.3068,-0.3067,-0.3107,-0.3114,-0.3066,-0.3066,-0.3066,-0.3066,-0.3066,-0.3066,-0.3245,-0.3218,-0.3217,-0.3186,-0.318,-0.3158,-0.315,-0.3139,-0.313,-0.3104,-0.3089,-0.3084,-0.3074,-0.3055,-0.3038,-0.3037,-0.3029,-0.3021,-0.3021,-0.3059,-0.3064,-0.3069,-0.3075,-0.302,-0.302,-0.2982,-0.2981,-0.2981]},{"header":{"parameterUnit":"m.s-1","parameterCategory":1,"la1":30.2991,"la2":30.254,"lo1":-89.0895,"lo2":-89.0444,"dy":0.0017,"dx":0.0017,"nx":28,"ny":28,"refTime":"2024-05-25T03:00:00:Z","depth":0,"parameterNumber":3,"parameterNumberName":"V-component_of_WINDS"},"data":[0,0,0,0,0,0,0,0,0,0,0,0,0,0,0,0,0,0,0,0,0,0,0,0,0,0,0,0,0,0,0,0,0,0,0,0,0,0,0,0,0,0,0,0,0,0,0,0,0,0,0,0,0,0,0,0,0,0,5.3127,5.3128,0,5.3176,5.3176,5.3177,5.3123,5.3121,5.3119,5.3117,5.3162,5.3165,5.3168,0,0,0,0,0,0,0,0,0,0,0,0,0,5.2983,5.2986,5.3127,5.3128,5.3128,5.3176,5.3177,5.3177,5.3124,5.3121,5.3119,5.3116,5.3161,5.3165,5.3169,0,0,0,0,0,0,0,0,0,0,0,0,0,5.304,5.2987,5.3127,5.3107,5.3106,5.3176,5.3177,5.3177,5.3124,5.3121,5.3118,5.3115,5.316,5.3164,5.3169,5.3259,0,0,5.3183,5.3185,0,0,0,0,0,0,0,0,5.3037,5.3045,5.311,5.3109,5.3108,5.3141,5.3142,5.3204,5.3125,5.3117,5.3117,5.3114,5.3157,5.3162,5.3177,5.3261,5.3263,5.3184,5.3186,5.3188,5.319,0,0,0,0,0,0,0,5.3033,5.3043,5.3146,5.3111,5.3109,5.3095,5.3099,5.3154,5.3153,5.3118,5.3114,5.3121,5.3156,5.3173,5.3178,5.3263,5.3184,5.3188,5.319,5.3192,5.3422,5.3426,0,0,0,0,0,0,5.3032,5.304,5.3145,5.3148,5.3064,5.31,5.3105,5.3133,5.3153,5.3153,5.3123,5.3118,5.3167,5.3173,5.318,5.3286,5.3188,5.3193,5.3195,5.3419,5.3423,5.3427,0,0,0,0,0,0,5.3029,5.3042,5.3143,5.3093,5.3105,5.3106,5.3137,5.3135,5.3153,5.3157,5.3156,5.3141,5.3165,5.3173,5.324,5.3286,5.3195,5.3199,5.3415,5.342,5.3425,5.3499,0,0,0,0,0,0,5.3025,5.3041,5.3076,5.3094,5.3108,5.3204,5.314,5.3139,5.3161,5.3155,5.3174,5.3174,5.3163,5.3233,5.3244,5.3291,5.3203,5.3411,5.3418,5.3423,5.3492,5.3505,5.3517,0,0,0,0,0,5.302,5.3093,5.3078,5.3091,5.3152,5.3206,5.3214,5.3201,5.3165,5.32,5.3203,5.3173,5.328,5.324,5.3253,5.3301,5.3408,5.3416,5.3423,5.3486,5.3503,5.3517,0,0,0,0,0,0,5.3078,5.3095,5.3078,5.316,5.3183,5.3197,5.324,5.3219,5.3251,5.3243,5.3224,5.3229,5.33,5.3307,5.3263,5.3389,5.3338,5.3348,5.3382,5.3397,5.341,5.3406,5.3207,0,0,0,0,0,5.3101,5.3146,5.3158,5.3229,5.3241,5.3239,5.3263,5.3251,5.3273,5.3281,5.3289,5.331,5.3348,5.3373,5.3408,5.3493,5.3496,5.3533,5.3545,5.3556,5.3564,5.3609,5.3626,5.3451,5.3451,5.3451,0,0,5.3148,5.3163,5.3192,5.3241,5.3257,5.3302,5.3247,5.3297,5.333,5.3288,5.3352,5.3359,5.3381,5.3457,5.3491,5.3465,5.3613,5.3565,5.3573,5.3576,5.3619,5.3635,5.365,5.3457,5.3456,5.3455,0,0,5.3256,5.3273,5.3334,5.3352,5.3377,5.3376,5.3391,5.3409,5.3412,5.3477,5.3446,5.3484,5.3551,5.3568,5.3585,5.3701,5.3675,5.3713,5.3778,5.3822,5.3836,5.3848,5.3889,5.3904,5.3722,5.3722,5.3723,0,5.3311,5.338,5.3367,5.3421,5.3443,5.3409,5.347,5.3487,5.3522,5.3538,5.3509,5.3592,5.3604,5.3684,5.3713,5.3728,5.3743,5.371,5.3836,5.3847,5.3858,5.3897,5.3913,5.3727,5.3726,5.3726,5.3725,0,5.3445,5.3493,5.3539,5.3576,5.3604,5.366,5.3656,5.3685,5.3671,5.3672,5.3738,5.3752,5.379,5.3808,5.3795,5.3886,5.3869,5.3839,5.3786,5.388,5.3916,5.3931,5.3733,5.3732,5.373,5.3729,0,0,5.359,5.3621,5.3638,5.3655,5.3681,5.3717,5.3772,5.3811,5.3836,5.3862,5.3907,5.3964,5.3936,5.3956,5.3944,5.3983,5.4074,5.3948,5.3948,5.397,5.4175,5.4198,5.4215,5.4058,5.4061,5.4063,5.4173,0,5.3698,5.3796,5.3787,5.3878,5.3922,5.3892,5.3939,5.396,5.3963,5.3999,5.4002,5.4043,5.4003,5.4015,5.4052,5.4056,5.4115,5.4048,5.4098,5.41,5.4092,5.4234,5.4258,5.4361,5.4187,5.419,5.4191,0,5.3837,5.387,5.3967,5.3988,5.4006,5.4049,5.4084,5.412,5.4143,5.4142,5.4165,5.4147,5.4201,5.4149,5.4223,5.4177,5.4197,5.4202,5.4206,5.4209,5.415,5.424,5.4394,5.4409,5.4214,5.4212,5.421,0,5.3933,5.4001,5.4068,5.4083,5.4109,5.414,5.4152,5.4172,5.4196,5.4226,5.4242,5.4277,5.4297,5.4324,5.4316,5.4279,5.4391,5.4338,5.4391,5.4391,5.4414,5.4413,5.4573,5.4429,5.4429,5.4429,5.4428,0,5.4054,5.4114,5.4111,5.4152,5.4218,5.4207,5.4273,5.428,5.4299,5.434,5.4315,5.4353,5.4341,5.4378,5.4372,5.4434,5.4442,5.4442,5.444,5.4444,5.4444,5.4456,5.4448,5.4433,5.4432,5.4431,5.4431,0,5.4171,5.4172,5.4242,5.4262,5.4268,5.4316,5.4332,5.437,5.4372,5.4424,5.4435,5.4437,5.448,5.4475,5.4523,5.4518,5.4595,5.4584,5.4588,5.4585,5.4638,5.4632,5.481,5.4832,5.4675,5.4677,5.4678,0,5.4248,5.4294,5.4319,5.4346,5.4361,5.4404,5.4429,5.442,5.4447,5.4477,5.4511,5.4552,5.4585,5.4655,5.4659,5.4696,5.4685,5.4745,5.469,5.4693,5.4685,5.4682,5.4686,5.4755,5.4757,5.4758,5.4759,0,5.4384,5.4383,5.4421,5.446,5.4491,5.4521,5.4548,5.457,5.4564,5.4595,5.464,5.4666,5.4715,5.4756,5.4791,5.4801,5.4779,5.4777,5.4791,5.4795,5.4795,5.4795,5.4616,5.4772,5.4771,5.477,5.4769,5.4769,5.4483,5.4522,5.4547,5.459,5.461,5.4636,5.4673,5.4681,5.4718,5.4759,5.4752,5.4802,5.4823,5.4868,5.4882,5.4921,5.4899,5.4919,5.4924,5.4929,5.4935,5.4791,5.4927,5.4926,5.4926,5.4926,5.4926,0,5.4617,5.4632,5.4673,5.4712,5.4746,5.4725,5.4754,5.4783,5.4829,5.4852,5.4885,5.4936,5.4976,5.4985,5.5023,5.5052,5.5043,5.5062,5.5059,5.5062,5.4952,5.4936,5.5069,5.5069,5.5069,5.5069,5.5069,5.5069,5.4691,5.4757,5.4759,5.4834,5.4848,5.4898,5.4917,5.494,5.4959,5.5018,5.5052,5.5058,5.5075,5.5114,5.515,5.5151,5.5166,5.5189,5.5186,5.5084,5.5069,5.5056,5.504,5.5193,5.5193,5.5292,5.5293,5.5294]}]]